[[{"header":{"parameterUnit":"m.s-1","parameterCategory":2,"la1":30.2991,"la2":30.254,"lo1":-89.0895,"lo2":-89.0444,"dx":0.0017,"dy":0.0017,"nx":28,"ny":28,"refTime":"2022-11-07T03:00:00:Z","depth":"0","parameterNumber":2,"parameterNumberName":"U-component_of_CURRENTS"},"data":[0,0,0,0,0,0,0,0,0,0,0,0,0,0,0,0,0,0,0,0,0,0,0,0,0,0,0,0,0,0,0,0,0,0,0,0,0,0,0,0,0,0,0,0,0,0,0,0,0,0,0,0,0,0,0,0,0,0,-0.3463,-0.3464,0,-0.3442,-0.344,-0.3439,-0.3296,-0.3294,-0.3292,-0.329,-0.299,-0.2984,-0.2978,0,0,0,0,0,0,0,0,0,0,0,0,0,-0.3369,-0.337,-0.3463,-0.3464,-0.3465,-0.3442,-0.344,-0.3438,-0.3296,-0.3294,-0.3291,-0.3289,-0.2992,-0.2985,-0.2977,0,0,0,0,0,0,0,0,0,0,0,0,0,-0.3371,-0.3371,-0.3463,-0.3402,-0.3398,-0.3442,-0.344,-0.3438,-0.3297,-0.3294,-0.329,-0.3287,-0.2994,-0.2985,-0.2976,-0.2985,0,0,-0.2949,-0.2945,0,0,0,0,0,0,0,0,-0.3371,-0.3373,-0.341,-0.3407,-0.3402,-0.3381,-0.3298,-0.3278,-0.3298,-0.332,-0.329,-0.3286,-0.3107,-0.3088,-0.3074,-0.2971,-0.2958,-0.2948,-0.2943,-0.2939,-0.2936,0,0,0,0,0,0,0,-0.3371,-0.3373,-0.344,-0.3412,-0.3407,-0.3373,-0.3368,-0.3293,-0.3215,-0.3318,-0.3311,-0.3333,-0.31,-0.3084,-0.3066,-0.2954,-0.2948,-0.294,-0.2935,-0.2931,-0.2784,-0.2786,0,0,0,0,0,0,-0.3408,-0.3374,-0.3441,-0.3441,-0.3395,-0.3378,-0.3372,-0.3379,-0.3222,-0.3201,-0.3336,-0.3326,-0.3101,-0.3077,-0.3054,-0.3016,-0.2939,-0.2931,-0.2925,-0.2783,-0.2785,-0.2786,0,0,0,0,0,0,-0.3406,-0.3414,-0.3442,-0.3419,-0.3422,-0.3385,-0.3393,-0.3381,-0.3345,-0.3241,-0.3211,-0.3312,-0.3097,-0.3067,-0.2973,-0.3004,-0.2926,-0.2918,-0.2781,-0.2784,-0.2786,-0.2963,0,0,0,0,0,0,-0.3403,-0.3412,-0.3415,-0.3421,-0.3425,-0.3445,-0.3397,-0.3383,-0.3372,-0.3358,-0.3212,-0.3182,-0.3092,-0.2988,-0.2964,-0.299,-0.2911,-0.2779,-0.2782,-0.2785,-0.2955,-0.2971,-0.2985,0,0,0,0,0,-0.3399,-0.3396,-0.3415,-0.3423,-0.3434,-0.3447,-0.3443,-0.3397,-0.3374,-0.3352,-0.3264,-0.3185,-0.2989,-0.2981,-0.2954,-0.2978,-0.2778,-0.2781,-0.2785,-0.2949,-0.2968,-0.2984,0,0,0,0,0,0,-0.3323,-0.3384,-0.3403,-0.341,-0.3433,-0.3427,-0.3412,-0.3406,-0.3327,-0.3302,-0.3192,-0.3157,-0.3093,-0.3012,-0.3007,-0.2946,-0.2876,-0.2874,-0.301,-0.3027,-0.3041,-0.3037,-0.2904,0,0,0,0,0,-0.3331,-0.335,-0.3403,-0.3405,-0.3425,-0.3429,-0.3428,-0.3413,-0.3367,-0.3329,-0.325,-0.3161,-0.3095,-0.3039,-0.2962,-0.292,-0.2859,-0.2922,-0.2937,-0.295,-0.2929,-0.2917,-0.2929,-0.2797,-0.2797,-0.2797,0,0,-0.3312,-0.334,-0.3355,-0.3394,-0.3404,-0.3434,-0.3412,-0.3415,-0.3425,-0.3309,-0.3265,-0.3203,-0.3096,-0.3053,-0.3018,-0.298,-0.2955,-0.2954,-0.2966,-0.2937,-0.2921,-0.2934,-0.2946,-0.28,-0.2799,-0.2799,0,0,-0.328,-0.3306,-0.3324,-0.3356,-0.3399,-0.3416,-0.3427,-0.3443,-0.3423,-0.3403,-0.3334,-0.3294,-0.3181,-0.3133,-0.3088,-0.3136,-0.3038,-0.3116,-0.3176,-0.3167,-0.3178,-0.3186,-0.3129,-0.3131,-0.3119,-0.3119,-0.312,0,-0.325,-0.3291,-0.3325,-0.3353,-0.3388,-0.3417,-0.345,-0.3449,-0.3429,-0.3427,-0.3393,-0.3305,-0.3224,-0.3192,-0.3208,-0.317,-0.3126,-0.3124,-0.3189,-0.3196,-0.3201,-0.314,-0.314,-0.3128,-0.3127,-0.3126,-0.3125,0,-0.3261,-0.3289,-0.3296,-0.3362,-0.3392,-0.342,-0.347,-0.3482,-0.3488,-0.3494,-0.3476,-0.3403,-0.3341,-0.3342,-0.3276,-0.3291,-0.3234,-0.3219,-0.3151,-0.3226,-0.3155,-0.3152,-0.3141,-0.3138,-0.3135,-0.3133,0,0,-0.319,-0.3293,-0.3294,-0.3331,-0.3409,-0.3429,-0.3475,-0.3524,-0.3534,-0.3543,-0.3546,-0.3503,-0.3482,-0.343,-0.3384,-0.338,-0.3397,-0.3318,-0.3313,-0.327,-0.334,-0.3131,-0.3106,-0.3402,-0.3403,-0.3403,-0.3276,0,-0.3188,-0.3253,-0.3311,-0.3363,-0.3402,-0.3467,-0.3501,-0.3542,-0.3558,-0.3561,-0.3556,-0.3521,-0.3512,-0.348,-0.3491,-0.3411,-0.3395,-0.3429,-0.3261,-0.3254,-0.307,-0.3098,-0.2947,-0.2805,-0.3272,-0.3271,-0.3271,0,-0.3177,-0.3224,-0.329,-0.3375,-0.34,-0.3433,-0.3501,-0.3535,-0.3568,-0.3576,-0.359,-0.3561,-0.3558,-0.3532,-0.3479,-0.3502,-0.3423,-0.3374,-0.3368,-0.3098,-0.3039,-0.2802,-0.278,-0.2765,-0.3265,-0.3265,-0.3266,0,-0.3103,-0.3199,-0.3253,-0.3287,-0.339,-0.3419,-0.3472,-0.3525,-0.3532,-0.357,-0.3553,-0.3582,-0.3526,-0.3519,-0.341,-0.345,-0.3313,-0.3357,-0.3096,-0.3079,-0.2871,-0.2833,-0.2812,-0.3301,-0.3301,-0.3302,-0.3302,0,-0.3073,-0.3097,-0.3218,-0.3238,-0.3267,-0.3368,-0.3385,-0.3441,-0.3484,-0.345,-0.3534,-0.3476,-0.3516,-0.3437,-0.3402,-0.3203,-0.3306,-0.308,-0.3031,-0.2924,-0.2895,-0.2802,-0.284,-0.3297,-0.3298,-0.3299,-0.33,0,-0.2956,-0.3052,-0.3089,-0.3203,-0.3222,-0.3234,-0.3307,-0.3297,-0.3384,-0.3336,-0.3338,-0.3365,-0.3259,-0.3247,-0.3163,-0.3108,-0.2917,-0.2892,-0.2729,-0.2662,-0.242,-0.2471,-0.2317,-0.2261,-0.2621,-0.2615,-0.261,0,-0.2906,-0.2913,-0.3014,-0.3,-0.3037,-0.3075,-0.3067,-0.3201,-0.3193,-0.3225,-0.3166,-0.3088,-0.2957,-0.2782,-0.2689,-0.2567,-0.2617,-0.2346,-0.2397,-0.2351,-0.2377,-0.2433,-0.2406,-0.2206,-0.2198,-0.2191,-0.2186,0,-0.2757,-0.2793,-0.282,-0.2797,-0.2791,-0.2797,-0.2821,-0.2819,-0.2926,-0.2901,-0.2805,-0.2718,-0.2546,-0.2332,-0.2178,-0.2117,-0.228,-0.2201,-0.2226,-0.2082,-0.2072,-0.2011,-0.2332,-0.2128,-0.2134,-0.2138,-0.2141,-0.2144,-0.2601,-0.2571,-0.2578,-0.2536,-0.2522,-0.2463,-0.242,-0.2452,-0.2405,-0.2325,-0.2387,-0.2184,-0.2072,-0.1827,-0.1767,-0.1632,-0.1779,-0.1614,-0.1689,-0.1757,-0.1672,-0.1815,-0.151,-0.1512,-0.1514,-0.1516,-0.1517,0,-0.2351,-0.2327,-0.2293,-0.2234,-0.2126,-0.2208,-0.2182,-0.2106,-0.1978,-0.1905,-0.1793,-0.158,-0.1405,-0.1376,-0.1266,-0.1186,-0.1245,-0.1185,-0.1304,-0.131,-0.1478,-0.1429,-0.1004,-0.1004,-0.1004,-0.1004,-0.1004,-0.1004,-0.2203,-0.2076,-0.2066,-0.1822,-0.1787,-0.1622,-0.158,-0.1506,-0.1431,-0.1181,-0.1037,-0.0934,-0.1012,-0.1116,-0.1054,-0.1009,-0.1068,-0.0968,-0.1075,-0.1277,-0.1328,-0.1376,-0.134,-0.0903,-0.0903,-0.0855,-0.0855,-0.0855]},{"header":{"parameterUnit":"m.s-1","parameterCategory":2,"la1":30.2991,"la2":30.254,"lo1":-89.0895,"lo2":-89.0444,"dx":0.0017,"dy":0.0017,"nx":28,"ny":28,"refTime":"2022-11-07T03:00:00:Z","depth":"0","parameterNumber":3,"parameterNumberName":"V-component_of_CURRENTS"},"data":[0,0,0,0,0,0,0,0,0,0,0,0,0,0,0,0,0,0,0,0,0,0,0,0,0,0,0,0,0,0,0,0,0,0,0,0,0,0,0,0,0,0,0,0,0,0,0,0,0,0,0,0,0,0,0,0,0,0,-0.0658,-0.0659,0,-0.0646,-0.0646,-0.0645,-0.063,-0.063,-0.063,-0.0631,-0.0573,-0.0572,-0.057,0,0,0,0,0,0,0,0,0,0,0,0,0,-0.0685,-0.0684,-0.0658,-0.0659,-0.0659,-0.0646,-0.0646,-0.0645,-0.063,-0.063,-0.0631,-0.0631,-0.0574,-0.0572,-0.057,0,0,0,0,0,0,0,0,0,0,0,0,0,-0.0668,-0.0683,-0.0658,-0.0654,-0.0654,-0.0646,-0.0646,-0.0645,-0.063,-0.063,-0.0631,-0.0631,-0.0575,-0.0572,-0.057,-0.0546,0,0,-0.0562,-0.056,0,0,0,0,0,0,0,0,-0.0669,-0.0666,-0.0654,-0.0654,-0.0654,-0.0645,-0.0634,-0.0611,-0.063,-0.0633,-0.0631,-0.0631,-0.0596,-0.0592,-0.0582,-0.0544,-0.0541,-0.0561,-0.056,-0.0559,-0.0558,0,0,0,0,0,0,0,-0.067,-0.0667,-0.0648,-0.0655,-0.0655,-0.0658,-0.0656,-0.063,-0.0608,-0.0633,-0.0633,-0.064,-0.0595,-0.0585,-0.058,-0.054,-0.0561,-0.0559,-0.0557,-0.0556,-0.0496,-0.0496,0,0,0,0,0,0,-0.068,-0.0668,-0.0649,-0.0648,-0.0668,-0.0658,-0.0655,-0.0643,-0.0609,-0.0606,-0.064,-0.064,-0.0589,-0.0584,-0.0578,-0.0537,-0.0559,-0.0556,-0.0555,-0.0496,-0.0496,-0.0496,0,0,0,0,0,0,-0.0681,-0.0678,-0.0649,-0.0663,-0.0661,-0.0657,-0.0644,-0.0643,-0.0633,-0.0616,-0.0611,-0.0634,-0.0589,-0.0582,-0.056,-0.0535,-0.0555,-0.0553,-0.0496,-0.0496,-0.0496,-0.0461,0,0,0,0,0,0,-0.0681,-0.0678,-0.067,-0.0663,-0.066,-0.0646,-0.0645,-0.0642,-0.064,-0.0639,-0.0609,-0.0604,-0.0589,-0.0564,-0.0557,-0.0532,-0.0551,-0.0496,-0.0496,-0.0496,-0.0463,-0.046,-0.0458,0,0,0,0,0,-0.0682,-0.0674,-0.0669,-0.0667,-0.065,-0.0646,-0.0644,-0.064,-0.0639,-0.0633,-0.0617,-0.0605,-0.0559,-0.0562,-0.0554,-0.0527,-0.0496,-0.0496,-0.0496,-0.0464,-0.0461,-0.0458,0,0,0,0,0,0,-0.0685,-0.0672,-0.0666,-0.0656,-0.0652,-0.0645,-0.0646,-0.064,-0.0621,-0.062,-0.06,-0.0593,-0.0563,-0.0558,-0.0562,-0.0514,-0.0527,-0.0525,-0.0505,-0.0502,-0.05,-0.0518,-0.0548,0,0,0,0,0,-0.0682,-0.0671,-0.0663,-0.0657,-0.0655,-0.0648,-0.0646,-0.0641,-0.063,-0.0622,-0.0607,-0.0588,-0.0556,-0.0542,-0.0522,-0.0492,-0.0474,-0.0474,-0.0472,-0.047,-0.0482,-0.0434,-0.0428,-0.0495,-0.0495,-0.0495,0,0,-0.0691,-0.0677,-0.0677,-0.0657,-0.0655,-0.0655,-0.0646,-0.0644,-0.0638,-0.0618,-0.0606,-0.0578,-0.0549,-0.0516,-0.0502,-0.0507,-0.0437,-0.047,-0.0468,-0.0481,-0.0433,-0.0426,-0.042,-0.0495,-0.0495,-0.0495,0,0,-0.0712,-0.0682,-0.069,-0.0677,-0.0671,-0.066,-0.066,-0.0652,-0.0639,-0.0619,-0.06,-0.056,-0.0531,-0.0496,-0.0474,-0.0449,-0.0427,-0.0449,-0.0444,-0.0397,-0.039,-0.0385,-0.033,-0.0319,-0.0446,-0.0446,-0.0446,0,-0.0727,-0.0726,-0.0693,-0.0692,-0.0695,-0.0664,-0.0679,-0.0651,-0.0637,-0.0628,-0.0616,-0.0556,-0.0516,-0.0466,-0.0452,-0.0439,-0.0418,-0.045,-0.0391,-0.0386,-0.038,-0.0326,-0.0315,-0.0444,-0.0444,-0.0445,-0.0445,0,-0.0756,-0.0752,-0.0755,-0.0741,-0.0728,-0.0735,-0.0699,-0.0683,-0.0661,-0.0637,-0.0592,-0.0534,-0.0505,-0.0469,-0.0444,-0.039,-0.0387,-0.0391,-0.0393,-0.0371,-0.0315,-0.0304,-0.0442,-0.0442,-0.0443,-0.0443,0,0,-0.0811,-0.0787,-0.0791,-0.0798,-0.0758,-0.0759,-0.0729,-0.0708,-0.0701,-0.0644,-0.0631,-0.0535,-0.0509,-0.0484,-0.044,-0.0382,-0.0293,-0.0372,-0.0371,-0.0309,-0.0186,-0.0135,-0.0119,-0.029,-0.0289,-0.0288,-0.0153,0,-0.0859,-0.0882,-0.0847,-0.0868,-0.088,-0.0828,-0.0808,-0.0768,-0.0726,-0.0697,-0.0605,-0.0571,-0.0512,-0.0493,-0.0421,-0.0335,-0.0268,-0.0329,-0.0226,-0.0223,-0.0173,-0.0106,-0.0066,0.006,-0.0143,-0.0141,-0.014,0,-0.0909,-0.0915,-0.0952,-0.0942,-0.0943,-0.0941,-0.0914,-0.089,-0.0812,-0.0778,-0.071,-0.0649,-0.0542,-0.0506,-0.0331,-0.0378,-0.0285,-0.0208,-0.0202,-0.0165,-0.0153,-0.0001,0.0087,0.0199,-0.0123,-0.0124,-0.0125,0,-0.0986,-0.0992,-0.103,-0.1024,-0.0998,-0.1004,-0.0988,-0.0924,-0.0906,-0.0834,-0.0808,-0.0689,-0.0619,-0.0494,-0.0312,-0.0329,-0.0121,-0.0128,0.0009,0.0013,0.0061,0.0068,0.0274,-0.0012,-0.0012,-0.0013,-0.0013,0,-0.1056,-0.1083,-0.1072,-0.1093,-0.1126,-0.1077,-0.1092,-0.1058,-0.1,-0.096,-0.0862,-0.0792,-0.0614,-0.0467,-0.0325,-0.0107,-0.0126,0.0026,0.0058,0.0076,0.0082,0.0189,0.0218,-0.0008,-0.0009,-0.001,-0.0011,0,-0.1133,-0.1129,-0.1169,-0.1167,-0.1166,-0.119,-0.1167,-0.116,-0.1103,-0.1047,-0.1024,-0.0859,-0.0651,-0.0463,-0.0232,-0.011,0.016,0.0149,0.0167,0.0199,0.0414,0.0442,0.064,0.0716,0.0319,0.0321,0.0323,0,-0.118,-0.1206,-0.1234,-0.1251,-0.1255,-0.127,-0.1263,-0.1221,-0.1193,-0.1061,-0.1025,-0.0831,-0.0639,-0.0288,-0.0051,0.0208,0.0276,0.0371,0.0352,0.0456,0.051,0.051,0.0558,0.044,0.0443,0.0445,0.0447,0,-0.1252,-0.1262,-0.1292,-0.132,-0.1335,-0.1342,-0.1326,-0.1321,-0.1227,-0.1145,-0.0963,-0.0804,-0.046,-0.0123,0.0179,0.0321,0.0456,0.0423,0.0532,0.0631,0.0644,0.0721,0.0321,0.0466,0.0464,0.0463,0.0462,0.0461,-0.1296,-0.1327,-0.1347,-0.1368,-0.138,-0.1363,-0.1343,-0.1266,-0.1181,-0.0953,-0.0865,-0.0499,-0.0184,0.0271,0.0421,0.0707,0.0648,0.078,0.081,0.0805,0.0868,0.0516,0.0687,0.0686,0.0686,0.0685,0.0685,0,-0.1311,-0.133,-0.1372,-0.1381,-0.1376,-0.1376,-0.1327,-0.1226,-0.1049,-0.0776,-0.0533,-0.0019,0.0324,0.0618,0.0948,0.1086,0.11,0.1136,0.1148,0.1184,0.0888,0.0883,0.1103,0.1103,0.1103,0.1103,0.1103,0.1102,-0.1312,-0.1337,-0.1348,-0.1337,-0.1341,-0.1284,-0.1235,-0.1026,-0.0787,-0.0289,0.013,0.0401,0.0708,0.1101,0.138,0.14,0.1511,0.1487,0.1549,0.1338,0.1307,0.1276,0.1281,0.1581,0.1582,0.1834,0.1837,0.1839]}],[{"header":{"parameterUnit":"m.s-1","parameterCategory":2,"la1":30.2991,"la2":30.254,"lo1":-89.0895,"lo2":-89.0444,"dx":0.0017,"dy":0.0017,"nx":28,"ny":28,"refTime":"2022-11-07T03:00:00:Z","depth":"2","parameterNumber":2,"parameterNumberName":"U-component_of_CURRENTS"},"data":[0,0,0,0,0,0,0,0,0,0,0,0,0,0,0,0,0,0,0,0,0,0,0,0,0,0,0,0,0,0,0,0,0,0,0,0,0,0,0,0,0,0,0,0,0,0,0,0,0,0,0,0,0,0,0,0,0,0,-0.2133,-0.2132,0,-0.2134,-0.2135,-0.2135,-0.2085,-0.2083,-0.2081,-0.208,-0.2278,-0.2285,-0.2292,0,0,0,0,0,0,0,0,0,0,0,0,0,-0.2152,-0.2152,-0.2133,-0.2132,-0.2132,-0.2134,-0.2135,-0.2135,-0.2085,-0.2083,-0.2081,-0.2079,-0.2276,-0.2284,-0.2292,0,0,0,0,0,0,0,0,0,0,0,0,0,-0.2153,-0.2152,-0.2133,-0.2103,-0.21,-0.2134,-0.2135,-0.2135,-0.2086,-0.2083,-0.208,-0.2078,-0.2273,-0.2283,-0.2293,-0.2413,0,0,-0.2325,-0.233,0,0,0,0,0,0,0,0,-0.2153,-0.2153,-0.2108,-0.2105,-0.2102,-0.2102,-0.2214,-0.2236,-0.2086,-0.2097,-0.208,-0.2076,-0.2236,-0.2249,-0.226,-0.2422,-0.2431,-0.2326,-0.2333,-0.2337,-0.234,0,0,0,0,0,0,0,-0.2153,-0.2153,-0.2139,-0.2108,-0.2104,-0.2112,-0.2109,-0.2218,-0.219,-0.2096,-0.2091,-0.2083,-0.2236,-0.225,-0.2265,-0.2434,-0.2326,-0.2335,-0.2342,-0.2346,-0.2576,-0.2576,0,0,0,0,0,0,-0.2142,-0.2153,-0.2139,-0.2138,-0.2115,-0.2113,-0.211,-0.2109,-0.2184,-0.219,-0.2086,-0.2081,-0.2234,-0.2253,-0.2272,-0.2336,-0.2337,-0.2347,-0.2353,-0.2576,-0.2576,-0.2576,0,0,0,0,0,0,-0.2142,-0.2141,-0.2139,-0.2141,-0.214,-0.2115,-0.2115,-0.211,-0.2115,-0.2173,-0.2183,-0.2091,-0.2232,-0.2258,-0.2319,-0.2346,-0.2352,-0.2361,-0.2577,-0.2576,-0.2576,-0.2517,0,0,0,0,0,0,-0.2143,-0.2141,-0.2149,-0.214,-0.2139,-0.215,-0.2117,-0.2112,-0.2112,-0.2106,-0.2184,-0.2198,-0.2232,-0.2303,-0.2329,-0.2361,-0.2369,-0.2577,-0.2577,-0.2576,-0.2519,-0.2515,-0.2511,0,0,0,0,0,-0.2144,-0.2146,-0.215,-0.2148,-0.2147,-0.215,-0.2152,-0.2128,-0.2115,-0.2122,-0.2141,-0.2195,-0.2319,-0.2311,-0.2343,-0.2378,-0.2577,-0.2577,-0.2576,-0.2521,-0.2516,-0.2511,0,0,0,0,0,0,-0.2138,-0.2141,-0.2144,-0.2143,-0.2147,-0.2139,-0.214,-0.2138,-0.2162,-0.216,-0.2207,-0.2224,-0.229,-0.2341,-0.233,-0.2437,-0.2455,-0.2461,-0.2402,-0.2399,-0.2395,-0.2412,-0.2378,0,0,0,0,0,-0.2149,-0.2154,-0.2161,-0.2154,-0.2163,-0.2163,-0.2165,-0.2158,-0.2169,-0.2175,-0.2226,-0.2275,-0.2321,-0.2358,-0.2421,-0.2501,-0.2499,-0.2537,-0.2533,-0.2529,-0.2561,-0.2526,-0.2521,-0.2575,-0.2575,-0.2575,0,0,-0.2139,-0.2141,-0.2142,-0.2155,-0.2158,-0.2177,-0.2157,-0.2163,-0.2171,-0.2205,-0.2245,-0.2284,-0.2338,-0.2392,-0.2429,-0.2435,-0.2506,-0.2529,-0.2525,-0.256,-0.2525,-0.252,-0.2515,-0.2575,-0.2575,-0.2575,0,0,-0.212,-0.2134,-0.2141,-0.2161,-0.2174,-0.2183,-0.2188,-0.2207,-0.2205,-0.2252,-0.2257,-0.2291,-0.2396,-0.241,-0.2433,-0.2458,-0.2488,-0.2491,-0.2493,-0.2456,-0.2452,-0.2448,-0.2402,-0.2395,-0.2484,-0.2484,-0.2484,0,-0.211,-0.2125,-0.2141,-0.2162,-0.2176,-0.2188,-0.2209,-0.2219,-0.2251,-0.2263,-0.2257,-0.2356,-0.2398,-0.2438,-0.2427,-0.2454,-0.2434,-0.2503,-0.2449,-0.2446,-0.2442,-0.2397,-0.239,-0.2481,-0.2482,-0.2482,-0.2482,0,-0.2107,-0.2131,-0.2135,-0.2172,-0.2194,-0.2212,-0.2235,-0.2261,-0.2272,-0.2284,-0.2334,-0.2365,-0.2416,-0.2428,-0.2441,-0.2454,-0.2445,-0.2445,-0.2457,-0.2433,-0.2387,-0.238,-0.2477,-0.2478,-0.2479,-0.248,0,0,-0.205,-0.2123,-0.2122,-0.2156,-0.2209,-0.2222,-0.2251,-0.2282,-0.2292,-0.2332,-0.2344,-0.2401,-0.242,-0.2448,-0.2465,-0.2444,-0.238,-0.2441,-0.244,-0.2388,-0.2289,-0.2208,-0.2193,-0.2362,-0.2361,-0.2361,-0.2252,0,-0.2044,-0.2087,-0.2126,-0.2171,-0.2207,-0.2249,-0.2275,-0.2307,-0.2322,-0.2342,-0.2364,-0.2396,-0.2422,-0.2439,-0.2422,-0.2407,-0.2367,-0.241,-0.2331,-0.2329,-0.2252,-0.2184,-0.2034,-0.1919,-0.2245,-0.2244,-0.2243,0,-0.2038,-0.2069,-0.2117,-0.2196,-0.2213,-0.2241,-0.2289,-0.2315,-0.2344,-0.2363,-0.2394,-0.2408,-0.2418,-0.2418,-0.2376,-0.2402,-0.2352,-0.2324,-0.2318,-0.2272,-0.2236,-0.2005,-0.1895,-0.2232,-0.2233,-0.2234,-0.2235,0,-0.1997,-0.2068,-0.2105,-0.2133,-0.2216,-0.224,-0.2276,-0.2319,-0.2337,-0.2368,-0.2378,-0.24,-0.24,-0.236,-0.2317,-0.2338,-0.2238,-0.2246,-0.2124,-0.2117,-0.1994,-0.1977,-0.219,-0.219,-0.2191,-0.2191,-0.2191,0,-0.1987,-0.2014,-0.2091,-0.211,-0.2148,-0.2221,-0.2251,-0.229,-0.2335,-0.234,-0.2384,-0.2374,-0.2384,-0.2332,-0.2292,-0.218,-0.2207,-0.212,-0.2081,-0.1965,-0.1947,-0.2244,-0.2252,-0.2187,-0.2188,-0.2188,-0.2189,0,-0.1935,-0.1992,-0.2037,-0.2113,-0.2134,-0.2157,-0.2229,-0.2244,-0.2306,-0.2306,-0.2316,-0.2341,-0.2273,-0.2249,-0.2169,-0.2129,-0.204,-0.1988,-0.1851,-0.1799,-0.195,-0.1956,-0.1841,-0.1837,-0.1834,-0.1831,-0.1829,0,-0.1911,-0.1931,-0.2007,-0.202,-0.205,-0.2097,-0.212,-0.221,-0.2223,-0.2262,-0.2244,-0.2211,-0.2133,-0.2003,-0.1929,-0.1816,-0.191,-0.1632,-0.1654,-0.1939,-0.1913,-0.1925,-0.1935,-0.1449,-0.1444,-0.144,-0.1436,0,-0.1844,-0.1875,-0.1898,-0.193,-0.1957,-0.1987,-0.2028,-0.2036,-0.2117,-0.2105,-0.2052,-0.199,-0.1895,-0.171,-0.1611,-0.1541,-0.1647,-0.1542,-0.1842,-0.1574,-0.1564,-0.1542,-0.1565,-0.1398,-0.1402,-0.1405,-0.1407,-0.1409,-0.1769,-0.1769,-0.1799,-0.1813,-0.1845,-0.184,-0.1803,-0.1844,-0.1819,-0.1762,-0.1802,-0.1653,-0.1638,-0.1382,-0.129,-0.1243,-0.1368,-0.1318,-0.1333,-0.1352,-0.1339,-0.1326,-0.1112,-0.1114,-0.1115,-0.1117,-0.1118,0,-0.1661,-0.1668,-0.1677,-0.1681,-0.1648,-0.171,-0.1701,-0.1625,-0.1523,-0.151,-0.1421,-0.1217,-0.1082,-0.1078,-0.0936,-0.0915,-0.0934,-0.0885,-0.0911,-0.0948,-0.0981,-0.0953,-0.062,-0.0619,-0.0618,-0.0617,0,0,-0.1604,-0.1566,-0.1568,-0.1468,-0.1463,-0.1354,-0.1306,-0.1216,-0.1165,-0.1027,-0.0949,-0.0986,-0.1013,-0.0804,-0.0765,-0.0663,-0.0801,-0.0628,-0.1024,-0.1089,-0.112,-0.122,-0.1216,0,0,0,0,0]},{"header":{"parameterUnit":"m.s-1","parameterCategory":2,"la1":30.2991,"la2":30.254,"lo1":-89.0895,"lo2":-89.0444,"dx":0.0017,"dy":0.0017,"nx":28,"ny":28,"refTime":"2022-11-07T03:00:00:Z","depth":"2","parameterNumber":3,"parameterNumberName":"V-component_of_CURRENTS"},"data":[0,0,0,0,0,0,0,0,0,0,0,0,0,0,0,0,0,0,0,0,0,0,0,0,0,0,0,0,0,0,0,0,0,0,0,0,0,0,0,0,0,0,0,0,0,0,0,0,0,0,0,0,0,0,0,0,0,0,-0.0228,-0.0227,0,-0.0142,-0.0141,-0.014,-0.0101,-0.0101,-0.0101,-0.01,0.0174,0.0181,0.0188,0,0,0,0,0,0,0,0,0,0,0,0,0,-0.03,-0.0299,-0.0228,-0.0227,-0.0226,-0.0142,-0.0141,-0.014,-0.0101,-0.0101,-0.01,-0.01,0.0171,0.018,0.0189,0,0,0,0,0,0,0,0,0,0,0,0,0,-0.0249,-0.0299,-0.0228,-0.0195,-0.0191,-0.0142,-0.0141,-0.014,-0.0101,-0.0101,-0.01,-0.01,0.0169,0.0179,0.019,0.0253,0,0,0.0223,0.0227,0,0,0,0,0,0,0,0,-0.0252,-0.0246,-0.0201,-0.0197,-0.0192,-0.013,-0.0066,0.0002,-0.0101,-0.0137,-0.01,-0.01,0.0091,0.0108,0.0118,0.0266,0.0278,0.0224,0.023,0.0235,0.0238,0,0,0,0,0,0,0,-0.0255,-0.0249,-0.0196,-0.0199,-0.0194,-0.0163,-0.0157,-0.0053,-0.0023,-0.0134,-0.013,-0.0118,0.0094,0.0107,0.0126,0.0282,0.0223,0.0233,0.024,0.0244,0.0465,0.0465,0,0,0,0,0,0,-0.0265,-0.0253,-0.0199,-0.0193,-0.022,-0.0162,-0.0155,-0.0152,-0.0028,-0.001,-0.0118,-0.0116,0.0089,0.0113,0.0136,0.0191,0.0235,0.0245,0.0251,0.0466,0.0465,0.0464,0,0,0,0,0,0,-0.0267,-0.0262,-0.0202,-0.0219,-0.0209,-0.0161,-0.0158,-0.015,-0.014,-0.0018,0.0004,-0.0116,0.009,0.0121,0.0189,0.0203,0.025,0.026,0.0467,0.0466,0.0465,0.032,0,0,0,0,0,0,-0.027,-0.0263,-0.0262,-0.022,-0.0208,-0.0186,-0.0158,-0.0149,-0.0131,-0.0129,-0.0008,0.0016,0.0093,0.0172,0.02,0.0219,0.0268,0.0467,0.0466,0.0465,0.0326,0.0314,0.0305,0,0,0,0,0,-0.0273,-0.0277,-0.0263,-0.0255,-0.0209,-0.0187,-0.0179,-0.0144,-0.0132,-0.0134,-0.0075,0.0012,0.0186,0.0179,0.0212,0.0235,0.0468,0.0466,0.0465,0.033,0.0316,0.0305,0,0,0,0,0,0,-0.0309,-0.0272,-0.0255,-0.0248,-0.0223,-0.018,-0.0173,-0.0152,-0.0109,-0.0103,0.0002,0.0031,0.0105,0.0181,0.0171,0.0293,0.0345,0.0349,0.0231,0.0219,0.0209,0.02,0.0277,0,0,0,0,0,-0.0316,-0.0311,-0.0271,-0.0268,-0.0257,-0.0217,-0.0202,-0.0183,-0.0139,-0.0122,-0.004,0.0047,0.0127,0.0175,0.0264,0.0328,0.0382,0.0365,0.0355,0.0345,0.0359,0.0412,0.0407,0.046,0.046,0.046,0,0,-0.0329,-0.0307,-0.0304,-0.0275,-0.0252,-0.0245,-0.0209,-0.0197,-0.0189,-0.0091,-0.0051,0.0025,0.0135,0.0196,0.0238,0.0261,0.0351,0.0343,0.0334,0.0354,0.041,0.0405,0.04,0.0459,0.0459,0.0459,0,0,-0.036,-0.0336,-0.0344,-0.0326,-0.0296,-0.027,-0.0271,-0.023,-0.021,-0.017,-0.01,-0.0041,0.0091,0.0154,0.0207,0.0196,0.0297,0.0239,0.0182,0.0231,0.0227,0.0225,0.025,0.025,0.0229,0.0228,0.0228,0,-0.0376,-0.038,-0.0344,-0.0346,-0.0333,-0.0288,-0.0295,-0.0269,-0.0212,-0.019,-0.0171,-0.0014,0.007,0.0145,0.0129,0.0176,0.0212,0.0215,0.0216,0.0215,0.0214,0.0241,0.0244,0.0221,0.0222,0.0223,0.0223,0,-0.0411,-0.0413,-0.0417,-0.0403,-0.0386,-0.0387,-0.0344,-0.0325,-0.0291,-0.0254,-0.0181,-0.0092,0.0001,0.0033,0.008,0.0127,0.0154,0.0195,0.024,0.02,0.0231,0.0236,0.0211,0.0214,0.0216,0.0217,0,0,-0.0448,-0.0444,-0.0444,-0.0451,-0.0416,-0.041,-0.0394,-0.0361,-0.0347,-0.0287,-0.0254,-0.0152,-0.0104,-0.0042,0.0029,0.0066,0.007,0.0118,0.0124,0.0129,0.0162,0.0198,0.0208,0.0108,0.0109,0.011,0.017,0,-0.0486,-0.0513,-0.049,-0.0511,-0.0522,-0.0474,-0.046,-0.0423,-0.0377,-0.0332,-0.0248,-0.0182,-0.0131,-0.0093,-0.0051,0.0063,0.0085,0.005,0.0215,0.0219,0.0246,0.0216,0.0197,0.0253,0.0176,0.0177,0.0178,0,-0.0527,-0.0538,-0.0571,-0.0569,-0.0566,-0.0567,-0.0532,-0.0513,-0.044,-0.0401,-0.0333,-0.0253,-0.0175,-0.0134,0.0007,-0.0017,0.0056,0.0127,0.0132,0.0231,0.0268,0.0292,0.0267,0.0188,0.0187,0.0186,0.0186,0,-0.058,-0.0593,-0.0624,-0.0622,-0.0609,-0.0611,-0.0596,-0.0538,-0.0517,-0.0443,-0.0411,-0.0305,-0.0238,-0.0134,0.0012,0.0009,0.0166,0.0182,0.0277,0.028,0.0334,0.034,0.0265,0.0265,0.0265,0.0265,0.0265,0,-0.0632,-0.0655,-0.0656,-0.0674,-0.07,-0.0666,-0.0672,-0.0639,-0.058,-0.0542,-0.0453,-0.0389,-0.0232,-0.0116,-0.0004,0.016,0.0153,0.0271,0.0305,0.0279,0.0279,0.0294,0.0296,0.0267,0.0266,0.0266,0.0266,0,-0.0691,-0.0692,-0.073,-0.0731,-0.0734,-0.0753,-0.0734,-0.0728,-0.0666,-0.0612,-0.0589,-0.0447,-0.0288,-0.0134,0.0055,0.0149,0.0294,0.0348,0.0296,0.0323,0.0368,0.0363,0.0447,0.0449,0.0451,0.0452,0.0454,0,-0.0726,-0.0754,-0.0781,-0.0805,-0.0812,-0.0829,-0.0835,-0.0785,-0.0762,-0.0632,-0.0603,-0.0443,-0.0298,-0.0025,0.016,0.035,0.0348,0.0432,0.0429,0.0366,0.0391,0.0382,0.0375,0.0424,0.0424,0.0425,0.0426,0,-0.0786,-0.0796,-0.0824,-0.0876,-0.0903,-0.0919,-0.0915,-0.0904,-0.0814,-0.0729,-0.0577,-0.0448,-0.0187,0.0047,0.0278,0.038,0.04,0.0453,0.042,0.0384,0.0351,0.0372,0.0364,0.0432,0.0431,0.0431,0.043,0.043,-0.0822,-0.0861,-0.0898,-0.0941,-0.0972,-0.0985,-0.0973,-0.0924,-0.0847,-0.0674,-0.0563,-0.0337,-0.0137,0.0214,0.0368,0.0487,0.0485,0.0516,0.0511,0.0506,0.0497,0.0469,0.0568,0.0568,0.0569,0.0569,0.0569,0,-0.0866,-0.0905,-0.0955,-0.1002,-0.1028,-0.1029,-0.1,-0.0933,-0.0804,-0.0642,-0.0452,-0.02,0.0046,0.0226,0.0436,0.057,0.0537,0.0572,0.0511,0.0505,0.05,0.0487,0.0558,0.0558,0.0558,0.0558,0,0,-0.0892,-0.095,-0.0974,-0.1027,-0.1052,-0.1037,-0.1001,-0.0869,-0.0729,-0.0514,-0.0347,-0.0149,0.007,0.0221,0.0379,0.0478,0.045,0.0472,0.047,0.0374,0.0367,0.046,0.0433,0,0,0,0,0]}],[{"header":{"parameterUnit":"m.s-1","parameterCategory":2,"la1":30.2991,"la2":30.254,"lo1":-89.0895,"lo2":-89.0444,"dx":0.0017,"dy":0.0017,"nx":28,"ny":28,"refTime":"2022-11-07T03:00:00:Z","depth":"4","parameterNumber":2,"parameterNumberName":"U-component_of_CURRENTS"},"data":[0,0,0,0,0,0,0,0,0,0,0,0,0,0,0,0,0,0,0,0,0,0,0,0,0,0,0,0,0,0,0,0,0,0,0,0,0,0,0,0,0,0,0,0,0,0,0,0,0,0,0,0,0,0,0,0,0,0,-0.1265,-0.1266,0,-0.1341,-0.1342,-0.1343,-0.1373,-0.1373,-0.1372,-0.1372,-0.1394,-0.1395,-0.1395,0,0,0,0,0,0,0,0,0,0,0,0,0,-0.1233,-0.1233,-0.1265,-0.1266,-0.1267,-0.1341,-0.1342,-0.1343,-0.1373,-0.1373,-0.1372,-0.1372,-0.1394,-0.1395,-0.1396,0,0,0,0,0,0,0,0,0,0,0,0,0,-0.1272,-0.1233,-0.1265,-0.1291,-0.1294,-0.134,-0.1342,-0.1343,-0.1373,-0.1373,-0.1372,-0.1372,-0.1393,-0.1395,-0.1396,-0.1409,0,0,-0.1399,-0.14,0,0,0,0,0,0,0,0,-0.1269,-0.1273,-0.1286,-0.1289,-0.1293,-0.1347,-0.1339,-0.1362,-0.1373,-0.1343,-0.1372,-0.1372,-0.1373,-0.1376,-0.1392,-0.141,-0.1411,-0.1399,-0.14,-0.14,-0.1401,0,0,0,0,0,0,0,-0.1266,-0.127,-0.1295,-0.1287,-0.1291,-0.1328,-0.1332,-0.1344,-0.1358,-0.1346,-0.1348,-0.1356,-0.1375,-0.1391,-0.1393,-0.1411,-0.1399,-0.14,-0.1401,-0.1401,-0.1475,-0.1476,0,0,0,0,0,0,-0.1252,-0.1267,-0.1293,-0.1298,-0.128,-0.1329,-0.1334,-0.133,-0.1359,-0.1364,-0.1356,-0.1357,-0.1389,-0.1391,-0.1393,-0.1447,-0.14,-0.1402,-0.1402,-0.1474,-0.1475,-0.1476,0,0,0,0,0,0,-0.1251,-0.1254,-0.129,-0.1285,-0.1292,-0.1329,-0.1325,-0.1332,-0.1367,-0.1368,-0.1371,-0.1387,-0.1389,-0.1392,-0.1425,-0.1446,-0.1402,-0.1403,-0.1472,-0.1474,-0.1476,-0.153,0,0,0,0,0,0,-0.125,-0.1252,-0.1262,-0.1283,-0.1292,-0.1325,-0.1326,-0.1333,-0.1372,-0.1374,-0.1395,-0.1396,-0.1389,-0.1423,-0.1426,-0.1447,-0.1404,-0.147,-0.1473,-0.1475,-0.1527,-0.1534,-0.154,0,0,0,0,0,-0.1248,-0.1264,-0.1262,-0.1266,-0.1297,-0.1326,-0.1334,-0.136,-0.1373,-0.1391,-0.1412,-0.1396,-0.1439,-0.1426,-0.1428,-0.145,-0.1469,-0.1472,-0.1475,-0.1524,-0.1532,-0.1539,0,0,0,0,0,0,-0.1256,-0.1269,-0.1267,-0.1285,-0.1305,-0.1331,-0.1362,-0.1375,-0.1409,-0.1419,-0.1418,-0.1421,-0.1454,-0.1449,-0.1434,-0.1478,-0.145,-0.1453,-0.1486,-0.1494,-0.15,-0.1497,-0.1405,0,0,0,0,0,-0.126,-0.1275,-0.1286,-0.1303,-0.1316,-0.1343,-0.1365,-0.1378,-0.1404,-0.142,-0.1436,-0.1452,-0.1466,-0.1478,-0.1487,-0.1518,-0.1502,-0.1533,-0.1539,-0.1545,-0.1545,-0.1543,-0.1549,-0.1486,-0.1486,-0.1486,0,0,-0.1265,-0.1278,-0.1285,-0.1307,-0.133,-0.1357,-0.1357,-0.1395,-0.1424,-0.1416,-0.1472,-0.1477,-0.148,-0.1511,-0.1526,-0.1512,-0.1556,-0.1548,-0.1553,-0.155,-0.1546,-0.1552,-0.1558,-0.1488,-0.1487,-0.1487,0,0,-0.1287,-0.1298,-0.1318,-0.1339,-0.1373,-0.1388,-0.1401,-0.1436,-0.1461,-0.1505,-0.1505,-0.1525,-0.1558,-0.156,-0.1565,-0.1613,-0.1589,-0.162,-0.1654,-0.1652,-0.1657,-0.1661,-0.1654,-0.1657,-0.1625,-0.1625,-0.1625,0,-0.1296,-0.1316,-0.133,-0.136,-0.1384,-0.1403,-0.1432,-0.1463,-0.1505,-0.1528,-0.1528,-0.1578,-0.1578,-0.1609,-0.1625,-0.1626,-0.1622,-0.1624,-0.166,-0.1663,-0.1667,-0.1658,-0.1661,-0.1628,-0.1628,-0.1627,-0.1627,0,-0.1318,-0.1352,-0.1373,-0.1408,-0.1437,-0.1469,-0.1499,-0.1537,-0.1568,-0.1589,-0.1635,-0.1639,-0.1663,-0.1668,-0.1664,-0.1692,-0.1681,-0.1666,-0.1638,-0.1676,-0.1665,-0.1667,-0.1632,-0.1631,-0.163,-0.163,0,0,-0.1295,-0.1371,-0.1382,-0.1414,-0.1465,-0.1489,-0.1545,-0.159,-0.1628,-0.1666,-0.1706,-0.1733,-0.1733,-0.1738,-0.1733,-0.1734,-0.1752,-0.1717,-0.1716,-0.1706,-0.1752,-0.1618,-0.1607,-0.1748,-0.1749,-0.1749,-0.1737,0,-0.1309,-0.1373,-0.1406,-0.1473,-0.1508,-0.1548,-0.1595,-0.1641,-0.1679,-0.1723,-0.1736,-0.1769,-0.1761,-0.1772,-0.1776,-0.1754,-0.1759,-0.1756,-0.172,-0.1719,-0.1591,-0.1604,-0.1751,-0.1738,-0.1738,-0.1739,-0.1739,0,-0.1315,-0.1361,-0.1425,-0.151,-0.1528,-0.1571,-0.1644,-0.1687,-0.1747,-0.1775,-0.181,-0.1818,-0.1837,-0.1816,-0.181,-0.1813,-0.1792,-0.1772,-0.177,-0.1624,-0.1586,-0.1691,-0.1741,-0.1741,-0.1741,-0.1741,-0.174,0,-0.1285,-0.1377,-0.1432,-0.1459,-0.1548,-0.1592,-0.164,-0.1707,-0.1744,-0.1807,-0.183,-0.1858,-0.1863,-0.1854,-0.1816,-0.1822,-0.179,-0.1788,-0.1651,-0.1642,-0.1743,-0.1739,-0.1782,-0.1782,-0.1783,-0.1783,-0.1783,0,-0.1277,-0.1328,-0.143,-0.1459,-0.1524,-0.159,-0.1658,-0.1708,-0.177,-0.1797,-0.1853,-0.1853,-0.1872,-0.1855,-0.1828,-0.173,-0.18,-0.165,-0.1625,-0.1768,-0.1766,-0.1744,-0.174,-0.1782,-0.1782,-0.1782,-0.1782,0,-0.1235,-0.1304,-0.1374,-0.1479,-0.1515,-0.1561,-0.1662,-0.1696,-0.1769,-0.1802,-0.1821,-0.1855,-0.1815,-0.1813,-0.1777,-0.1718,-0.1655,-0.1606,-0.1756,-0.1741,-0.1512,-0.1511,-0.1456,-0.1451,-0.1447,-0.1444,-0.1441,0,-0.1215,-0.1249,-0.137,-0.141,-0.1464,-0.1545,-0.1589,-0.1682,-0.1707,-0.1775,-0.1766,-0.1768,-0.1769,-0.1606,-0.1624,-0.1557,-0.1536,-0.1513,-0.1515,-0.1495,-0.1477,-0.1482,-0.1487,-0.1434,-0.1433,-0.1432,-0.1431,0,-0.1164,-0.1219,-0.1266,-0.135,-0.1414,-0.1473,-0.1542,-0.1549,-0.1631,-0.172,-0.1651,-0.1609,-0.1554,-0.15,-0.1452,-0.1411,-0.1533,-0.1469,-0.1478,-0.148,-0.1467,-0.1455,-0.1464,-0.1416,-0.1418,-0.142,-0.1421,0,-0.1117,-0.1135,-0.1202,-0.1262,-0.1341,-0.1362,-0.1418,-0.1427,-0.1456,-0.1532,-0.1498,-0.1492,-0.1526,-0.1422,-0.138,-0.1321,-0.1304,-0.1274,-0.1293,-0.1309,-0.1263,-0.1225,-0.1069,0,0,0,0,0,-0.1059,-0.1063,-0.1109,-0.116,-0.1233,-0.1268,-0.1361,-0.1413,-0.1497,-0.1405,-0.1445,-0.1381,-0.1295,-0.1293,-0.1196,-0.1319,-0.1319,-0.1204,-0.1298,-0.1336,-0.1352,-0.131,0,0,0,0,0,0,-0.1019,-0.1051,-0.1065,-0.1055,-0.1065,-0.1119,-0.1166,-0.1227,-0.1183,-0.1271,-0.122,-0.1291,-0.1218,-0.1307,-0.1158,-0.1161,-0.1192,-0.1215,-0.1211,-0.1326,-0.1341,-0.1355,-0.1317,0,0,0,0,0]},{"header":{"parameterUnit":"m.s-1","parameterCategory":2,"la1":30.2991,"la2":30.254,"lo1":-89.0895,"lo2":-89.0444,"dx":0.0017,"dy":0.0017,"nx":28,"ny":28,"refTime":"2022-11-07T03:00:00:Z","depth":"4","parameterNumber":3,"parameterNumberName":"V-component_of_CURRENTS"},"data":[0,0,0,0,0,0,0,0,0,0,0,0,0,0,0,0,0,0,0,0,0,0,0,0,0,0,0,0,0,0,0,0,0,0,0,0,0,0,0,0,0,0,0,0,0,0,0,0,0,0,0,0,0,0,0,0,0,0,-0.0194,-0.0194,0,-0.0165,-0.0165,-0.0165,-0.0136,-0.0136,-0.0135,-0.0135,-0.0113,-0.0113,-0.0113,0,0,0,0,0,0,0,0,0,0,0,0,0,-0.0203,-0.0203,-0.0194,-0.0194,-0.0193,-0.0165,-0.0165,-0.0165,-0.0136,-0.0136,-0.0135,-0.0135,-0.0113,-0.0113,-0.0113,0,0,0,0,0,0,0,0,0,0,0,0,0,-0.019,-0.0203,-0.0194,-0.0175,-0.0173,-0.0165,-0.0165,-0.0164,-0.0136,-0.0136,-0.0135,-0.0134,-0.0113,-0.0113,-0.0113,-0.0125,0,0,-0.0112,-0.0112,0,0,0,0,0,0,0,0,-0.0191,-0.019,-0.0179,-0.0177,-0.0174,-0.0153,-0.016,-0.0151,-0.0137,-0.0151,-0.0135,-0.0134,-0.0127,-0.0126,-0.0123,-0.0124,-0.0123,-0.0112,-0.0112,-0.0112,-0.0112,0,0,0,0,0,0,0,-0.0192,-0.0191,-0.0184,-0.0178,-0.0175,-0.016,-0.0158,-0.0158,-0.0144,-0.015,-0.0148,-0.0143,-0.0126,-0.0123,-0.0122,-0.0123,-0.0112,-0.0112,-0.0112,-0.0112,-0.0126,-0.0126,0,0,0,0,0,0,-0.0195,-0.0192,-0.0185,-0.0183,-0.018,-0.0161,-0.0158,-0.0161,-0.0144,-0.014,-0.0144,-0.0142,-0.0124,-0.0123,-0.0121,-0.012,-0.0112,-0.0112,-0.0112,-0.0125,-0.0126,-0.0127,0,0,0,0,0,0,-0.0196,-0.0195,-0.0186,-0.0185,-0.0183,-0.0161,-0.0165,-0.0161,-0.0158,-0.0139,-0.0136,-0.0145,-0.0123,-0.0122,-0.0115,-0.012,-0.0112,-0.0111,-0.0125,-0.0126,-0.0126,-0.0127,0,0,0,0,0,0,-0.0196,-0.0196,-0.0199,-0.0186,-0.0183,-0.0184,-0.0165,-0.0161,-0.0156,-0.0153,-0.0139,-0.0136,-0.0123,-0.0116,-0.0115,-0.0119,-0.0111,-0.0124,-0.0125,-0.0126,-0.0126,-0.0128,-0.0129,0,0,0,0,0,-0.0197,-0.0204,-0.0199,-0.0198,-0.0188,-0.0185,-0.0182,-0.0164,-0.0157,-0.0159,-0.0143,-0.0136,-0.0122,-0.0116,-0.0115,-0.0119,-0.0124,-0.0125,-0.0126,-0.0126,-0.0128,-0.0129,0,0,0,0,0,0,-0.0211,-0.0201,-0.0196,-0.02,-0.0194,-0.0179,-0.0179,-0.017,-0.016,-0.0159,-0.0139,-0.0135,-0.0133,-0.013,-0.0124,-0.0128,-0.0124,-0.0125,-0.0124,-0.0126,-0.0127,-0.0129,-0.0111,0,0,0,0,0,-0.0216,-0.022,-0.0208,-0.0214,-0.0211,-0.0197,-0.0193,-0.0186,-0.0174,-0.017,-0.0155,-0.0146,-0.0139,-0.0134,-0.0131,-0.0132,-0.0106,-0.0136,-0.0138,-0.0139,-0.0141,-0.01,-0.0097,-0.013,-0.013,-0.013,0,0,-0.0225,-0.0219,-0.0222,-0.0217,-0.0211,-0.0213,-0.0194,-0.0195,-0.0195,-0.017,-0.0164,-0.0152,-0.0142,-0.0138,-0.0138,-0.0133,-0.0115,-0.014,-0.0141,-0.0143,-0.01,-0.0097,-0.0094,-0.0131,-0.0131,-0.0131,0,0,-0.0247,-0.0239,-0.025,-0.0245,-0.0238,-0.0229,-0.0231,-0.0219,-0.0209,-0.0206,-0.0186,-0.0171,-0.0167,-0.0149,-0.0144,-0.0154,-0.0125,-0.016,-0.0163,-0.0123,-0.0119,-0.0115,-0.0068,-0.006,-0.0157,-0.0157,-0.0157,0,-0.0257,-0.0269,-0.0253,-0.026,-0.0258,-0.0238,-0.0249,-0.0239,-0.0225,-0.0216,-0.0208,-0.018,-0.0171,-0.0154,-0.0156,-0.0155,-0.0124,-0.0155,-0.0122,-0.0118,-0.0114,-0.0066,-0.0058,-0.0158,-0.0158,-0.0158,-0.0158,0,-0.0283,-0.0293,-0.0299,-0.0301,-0.0295,-0.0303,-0.0285,-0.0279,-0.0266,-0.0248,-0.0228,-0.0202,-0.0184,-0.0179,-0.0171,-0.0146,-0.0129,-0.0127,-0.0113,-0.0111,-0.0061,-0.0052,-0.0158,-0.0158,-0.0158,-0.0158,0,0,-0.0306,-0.0317,-0.032,-0.033,-0.0318,-0.032,-0.0316,-0.0304,-0.0298,-0.0271,-0.0251,-0.0231,-0.0206,-0.0198,-0.0176,-0.014,-0.0085,-0.0125,-0.0123,-0.0069,0.0017,0.0008,0.0018,-0.0072,-0.007,-0.0069,0.0046,0,-0.0333,-0.0363,-0.0354,-0.0378,-0.0391,-0.0368,-0.0363,-0.0346,-0.0323,-0.0296,-0.0253,-0.0232,-0.0215,-0.0203,-0.0162,-0.0108,-0.0063,-0.0116,-0.0002,0.0002,0.0001,0.0027,-0.0066,0.0053,0.0055,0.0057,0.0058,0,-0.0361,-0.0377,-0.041,-0.042,-0.0421,-0.0431,-0.0416,-0.0408,-0.0362,-0.0339,-0.0296,-0.0258,-0.0202,-0.019,-0.0079,-0.0111,-0.0052,-0.0003,0.0003,-0.0001,0.0009,0.0047,0.0075,0.0073,0.0072,0.0071,0.007,0,-0.0391,-0.0415,-0.0446,-0.045,-0.0454,-0.0464,-0.0461,-0.0428,-0.0416,-0.0364,-0.034,-0.0265,-0.0223,-0.014,-0.0046,-0.0058,0.0085,0.0082,0.0137,0.0138,0.0112,0.0107,0.0164,0.0164,0.0164,0.0164,0.0163,0,-0.0421,-0.0447,-0.0469,-0.0488,-0.0519,-0.0502,-0.0517,-0.0499,-0.0457,-0.0431,-0.0368,-0.032,-0.0209,-0.0115,-0.0035,0.0083,0.0098,0.0145,0.0168,0.0109,0.0103,0.012,0.0114,0.0168,0.0167,0.0166,0.0165,0,-0.0452,-0.0467,-0.0508,-0.053,-0.0542,-0.0564,-0.0568,-0.0566,-0.0521,-0.048,-0.0462,-0.035,-0.0225,-0.0108,0.004,0.0096,0.0205,0.0242,0.0184,0.0201,0.0231,0.0223,0.032,0.032,0.0321,0.0321,0.0322,0,-0.0471,-0.0498,-0.0549,-0.0579,-0.0599,-0.0626,-0.0641,-0.061,-0.0593,-0.0492,-0.0466,-0.034,-0.0256,-0.0033,0.007,0.0237,0.0247,0.0304,0.0255,0.0235,0.0248,0.0239,0.023,0.0323,0.0323,0.0323,0.0323,0,-0.0503,-0.0527,-0.0559,-0.0626,-0.0664,-0.0692,-0.0703,-0.0689,-0.0624,-0.0585,-0.0443,-0.0319,-0.0173,-0.002,0.011,0.022,0.0264,0.031,0.0309,0.0263,0.024,0.025,0.0241,0.0325,0.0325,0.0325,0.0324,0,-0.0524,-0.0558,-0.0607,-0.0659,-0.0712,-0.0734,-0.0736,-0.0686,-0.0652,-0.0522,-0.0475,-0.0304,-0.0198,-0.0027,0.009,0.0199,0.0215,0.0235,0.0239,0.0238,0.0164,0.0119,0.0196,0,0,0,0,0,-0.0538,-0.0577,-0.0634,-0.069,-0.074,-0.0762,-0.0762,-0.0744,-0.0676,-0.0575,-0.0514,-0.0368,-0.0157,-0.0066,0.0044,0.0064,0.0202,0.0192,0.0218,0.0336,0.0334,0.0258,0,0,0,0,0,0,-0.055,-0.0606,-0.0634,-0.0699,-0.0736,-0.078,-0.0776,-0.0731,-0.066,-0.0572,-0.0456,-0.036,-0.0164,-0.0217,0.0042,0.0075,0.0102,0.0298,0.0299,0.0337,0.0335,0.0333,0.0255,0,0,0,0,0]}]]